STARLINK-31666, 59572

Orbit data source: Space-Track

STARLINK-31666, 59572 is a payload satellite owned by SpaceX/Seattle (US) in LEO that was launched on Tue, 23 Apr 2024 UTC via an FALCON 9 launch vehicle from the Air Force Eastern Test Range (AFETR). Payload-class satellites include a variety of spacecraft equipped with specific instruments for various scientific and technological missions. These include communications satellites like Starlink; space stations such as the ISS; scientific satellites like the Hubble; Earth observation satellites from companies like Planet Labs, Umbra, and HawkEye 360; GPS; miniature CubeSats for education and research; and military/defense satellites.

Loading next visibility...
Identifier
59572, 2024-076J
Orbit
LEO
Country
Flag of USUS
Related business
Manufacturer
SpaceX/Seattle
Mission
Operational spacecraft
Bus & Motor
STARLINK V2M, Unknown motor
Mass
730 kg wet, ~700 kg dry
Launch date (UTC)
2024-04-23 (1 year ago)
Launch vehicle
FALCON 9
Launch site
Air Force Eastern Test Range (AFETR)
Object type
Payload
Rocket body
Debris
Shape & HBR
Unknown
Radar Cross Section
Large (>1 m²)

Expand to show TLE details & history
Last TLE update: 1 day ago

TLE from 1 day ago
0 STARLINK-31666
1 59572U 24076J   25257.34684391  .00000082  00000-0  12510-4 0  9999
2 59572  43.0006 277.9203 0000843 269.6409  90.4346 15.27576266 79610
Epoch: 2025-09-14T08:19Z
TLE epoch observation values (Epoch: 2025-09-14T08:19:27.313Z)
Latitude
-0.00004°
Longitude
159.4893°
Altitude
482.84 km
Speed
7.626 km/s
True Right ascension
18h 31m 40s
True Declination
0° 00' 00"
Sunlit
Object was in daylight at epoch
Visualization orbit readout
Latitude
Unknown
Longitude
Unknown
Altitude
Unknown
Speed
Unknown
Apparent Right ascension
Unknown
Apparent Declination
Unknown
Sunlit
N/A
Visualization observer readout
Local Sidereal Time
00:40:45
Azimuth
Unknown
Elevation
Unknown
Doppler factor
Unknown
Orbital elements
Apogee altitude
485.584 km
Perigee altitude
484.427 km
Semi-major axis
6,863.142 km
Eccentricity
0.00008
Inclination
43.0006°
RAAN
277.9203°
Arg. of periapsis
269.6409°
True anomaly
90.44426°
Mean anomaly
90.4346°
Eccentric anomaly
90.43943°
Mean motion
3.81732 °/min
Orbital period
94.31 mins
BSTAR
0.00001251
Loading maneuver chart data...
Computing Atmospheric mass density...
Loading historical data...
Loading historical data...
Loading historical data...
Loading historical data...
Loading historical data...
Loading historical data...
Loading historical data...

Documentation

Showing up to 5 results
|